Вернуться в каталог

STARLINK-6292

АктивенСвязьVLEO
NORAD 56775·PAYLOAD·🇺🇸 United States

Запущен May 31, 2023 с Vandenberg Space Force Base

Loading…

Ближайшие Пролёты (ближайшие 24 часа)

TLE

СвежийSource: CelesTrak SupGP

Эпоха: Sep 15, 2026, 03:08 UTC

1 56775C 23078J   26258.13104167  .00004818  00000+0  40371-3 0  2582
2 56775  70.0025 186.9501 0003238 272.7551 290.6092 14.98329303    12

Отслеживайте STARLINK-6292 в реальном времени с AllMySat

Download on the App Store